Regional Weather Roundup
Issued by NWS

Home | Current Version | Previous Version | Graphics & Text | Print | Product List | Glossary Off
Versions: 1 2 3 4 5 6 7 8 9 10 11 12 13 14 15 16 17 18 19 20 21 22 23 24 25 26 27 28 29 30 31 32 33 34 35 36 37 38 39 40 41 42 43 44 45 46 47 48 49 50

000
ASUS43 KOAX 020810
RWRNE

WEATHER ROUNDUP FOR NEBRASKA
NATIONAL WEATHER SERVICE OMAHA NE
300 AM CDT THU APR 02 2015

NOTES: SATELLITE DATA IS BEING USED TO AUGMENT CLOUD COVER ABOVE
       12000 FEET.
       "FAIR" INDICATES FEW OR NO CLOUDS BELOW 12,000 FEET WITH NO
       SIGNIFICANT WEATHER AND/OR OBSTRUCTIONS TO VISIBILITY.

  * THESE STATIONS DO NOT REPORT WEATHER SUCH AS RAIN...SNOW OR FOG.

NEZ001>004-019>022-054>056-020900-
NEBRASKA PANHANDLE

CITY           SKY/WX    TMP DP  RH WIND       PRES   REMARKS
SCOTTSBLUFF    PTCLDY    31  23  72 NW9       29.94R WCI  23
ALLIANCE       CLEAR     25  20  81 W8        29.92R WCI  16
CHADRON        CLEAR     29  19  66 SW6       29.92R WCI  23
KIMBALL        CLEAR     31  22  68 NW7       29.92R WCI  25
SIDNEY         PTCLDY    29  21  72 NW10      29.93R WCI  20
$$

NEZ057>060-069>072-079>082-020900-
SOUTHWEST NEBRASKA

CITY           SKY/WX    TMP DP  RH WIND       PRES   REMARKS
NORTH PLATTE   MOCLDY    39  23  52 N3        29.88R
IMPERIAL       PTCLDY    40  32  73 N9        29.88R WCI  34
LEXINGTON      CLOUDY    49  35  56 N9        29.85F
MCCOOK         MOCLDY    46  37  71 NE10      29.84S
OGALLALA       CLEAR     36  29  76 N7        29.90R WCI  30
$$

NEZ005>010-023>029-035>040-094-020900-
NORTH CENTRAL NEBRASKA

CITY           SKY/WX    TMP DP  RH WIND       PRES   REMARKS
VALENTINE      CLOUDY    37  19  48 W8        29.87R WCI  31
AINSWORTH      CLOUDY    44  20  38 NW7       29.86S
BROKEN BOW     CLOUDY    50  23  34 N3        29.85R
O`NEILL        CLOUDY    48  26  42 CALM      29.84F
ORD            CLOUDY    52  22  30 NE10      29.79F
THEDFORD       CLOUDY    45  24  44 CALM      29.89R
$$

NEZ041-046>049-061>064-073>077-083>087-020900-
SOUTH CENTRAL NEBRASKA

CITY           SKY/WX    TMP DP  RH WIND       PRES   REMARKS
GRAND ISLAND   CLOUDY    50  35  56 N13       29.79R
AURORA         CLOUDY    51  38  60 N13       29.77F
HASTINGS       CLOUDY    51  36  56 NE10      29.78F
HEBRON         CLOUDY    54  46  74 N13       29.78R
HOLDREGE       CLOUDY    54  24  31 N17G23    29.86R
KEARNEY *      CLOUDY    54  25  32 N17       29.84R
YORK           CLOUDY    50  41  71 N9        29.77F
$$

NEZ011>018-030>034-042>045-020900-
NORTHEAST NEBRASKA

CITY           SKY/WX    TMP DP  RH WIND       PRES   REMARKS
NORFOLK        CLOUDY    54  32  43 N14       29.77F
ALBION         CLOUDY    54  24  31 N8        29.79S
BLAIR          LGT RAIN  55  49  82 N13       29.72F
COLUMBUS *     CLOUDY    52  36  54 N10       29.78R
FREMONT        CLOUDY    54  44  68 N9        29.72F
TEKAMAH        LGT RAIN  54  49  83 N8        29.74F
WAYNE          CLOUDY    51  36  55 N14       29.78F
$$

NEZ050>053-065>068-078-088>093-020900-
SOUTHEAST NEBRASKA

CITY           SKY/WX    TMP DP  RH WIND       PRES   REMARKS
LINCOLN        CLOUDY    54  46  74 N16       29.75R
OMAHA EPPLEY   LGT RAIN  55  53  93 N10       29.72F
BEATRICE       CLOUDY    54  51  89 NE7       29.78R
FALLS CITY     LGT RAIN  56  54  93 NE9       29.69S
NEBRASKA CITY  LGT RAIN  55  55 100 N7G17     29.75S
PLATTSMOUTH    CLOUDY    54  52  92 N14G20    29.71F
$$

NEZ044-045-051>053-067-020900-
OMAHA AREA

CITY           SKY/WX    TMP DP  RH WIND       PRES   REMARKS
OMAHA EPPLEY   LGT RAIN  55  53  93 N10       29.72F
BLAIR          LGT RAIN  55  49  82 N13       29.72F
FREMONT        CLOUDY    54  44  68 N9        29.72F
MILLARD        LGT RAIN  55  52  88 NE5       29.71F
OFFUTT AFB     CLOUDY    55  53  94 N7        29.71F
PLATTSMOUTH    CLOUDY    54  52  92 N14G20    29.71F
WAHOO          FAIR      53  44  70 N16       29.72R
$$


USA.gov is the U.S. government's official web portal to all federal, state and local government web resources and services.